Regional Weather Roundup
Issued by NWS

Home | Current Version | Previous Version | Graphics & Text | Print | Product List | Glossary On
Versions: 1 2 3 4 5 6 7 8 9 10 11 12 13 14 15 16 17 18 19 20 21 22 23 24 25 26 27 28 29 30 31 32 33 34 35 36 37 38 39 40 41 42 43 44 45 46 47 48 49 50
000
ASUS43 KBIS 211610
RWRND

NORTH DAKOTA REGIONAL WEATHER ROUNDUP
NATIONAL WEATHER SERVICE BISMARCK ND
1100 AM CDT SAT OCT 21 2017

NOTE: "FAIR" INDICATES FEW OR NO CLOUDS BELOW 12,000 FEET WITH NO
SIGNIFICANT WEATHER AND/OR OBSTRUCTIONS TO VISIBILITY.


NDZ001>003-009>011-017-211700-
NORTHWEST NORTH DAKOTA

CITY           SKY/WX    TMP DP  RH WIND       PRES   REMARKS
WILLISTON      CLOUDY    46  38  73 W18G26    29.57
MINOT          CLOUDY    50  39  66 SW23G31   29.49R
MINOT AFB      CLOUDY    49  39  67 W22G29    29.47R
$$

NDZ018>021-031>035-040>046-211700-
SOUTHWEST NORTH DAKOTA

CITY           SKY/WX    TMP DP  RH WIND       PRES   REMARKS
BISMARCK       CLOUDY    49  42  77 NW13      29.57S
DICKINSON      CLOUDY    46  35  65 W33G46    29.60R
GARRISON         N/A     49  39  68 W23G36    29.54R
HETTINGER ARPT CLOUDY    47  30  51 W28G37    29.68R
$$

NDZ004>008-012>016-024-026-027-054-211700-
NORTHEAST NORTH DAKOTA

CITY           SKY/WX    TMP DP  RH WIND       PRES   REMARKS
GRAND FORKS    PTSUNNY   62  41  46 SW13      29.44R
GRND FRKS AFB  CLOUDY    60  39  46 SW12      29.45R
DEVILS LAKE    CLOUDY    52  40  63 W28G33    29.45R
$$

NDZ022-023-025-028>030-036>039-047>053-211700-
SOUTHEAST NORTH DAKOTA

CITY           SKY/WX    TMP DP  RH WIND       PRES   REMARKS
FARGO          CLOUDY    60  41  49 W13       29.49R
JAMESTOWN      PTSUNNY   56  40  55 W23       29.51R
$$





USA.gov is the U.S. government's official web portal to all federal, state and local government web resources and services.